No particular awareness of the weather is required.    There are no Weather-warnings


Meteo18 Weather Cam more information Meteo18 Weather Cam


Thunder radar more information blitzortung!


Rain radar more information rain snow radar


Visit our other weather sites:

Template documentation
and downloads

And another site



Weather Underground History page Text

Daily Summary for January 25, 2017 Units:  English    Metric   Both
« Previous Day
Next Day »
Daily Weekly Monthly Yearly Custom
  High: Low: Average:
Temperature: 29.5 °F 22.8 °F 26.8 °F
Dew Point: 27 °F 19.2 °F 22.5 °F
Humidity: 91 % 78 % 84 %
Wind Speed: 14 mph 0 mph 3.9 mph
Wind Gust: 15 mph - -
Wind:- - ENE
Pressure: 30.4 in 30.3 in -
Precipitation: 0 in    
Historical Graphs
 
 
Tabular Data for January 25, 2017
Time Temperature Dew Point Pressure Wind Wind Speed Wind Gust Humidity Rainfall Rate (Hourly)
00:02 29.5 °F 27 °F 30.4 in NE 5 mph 15 mph 90 % 0 in
00:12 29.5 °F 26.6 °F 30.4 in NNE 4 mph 15 mph 89 % 0 in
00:17 29.3 °F 26.4 °F 30.4 in NNE 6 mph 14 mph 89 % 0 in
00:22 29.3 °F 26.8 °F 30.4 in NE 5 mph 12 mph 90 % 0 in
00:27 29.1 °F 26.6 °F 30.4 in NNE 6 mph 12 mph 90 % 0 in
00:32 29.1 °F 26.6 °F 30.4 in NNE 2 mph 11 mph 90 % 0 in
00:37 29.1 °F 26.6 °F 30.4 in NE 6 mph 11 mph 90 % 0 in
00:42 29.1 °F 26.6 °F 30.4 in NNW 5 mph 8 mph 90 % 0 in
00:47 29.1 °F 26.8 °F 30.4 in NE 4 mph 8 mph 91 % 0 in
00:52 29.1 °F 26.8 °F 30.4 in North 6 mph 9 mph 91 % 0 in
00:57 29.1 °F 26.8 °F 30.4 in NNE 1 mph 8 mph 91 % 0 in
01:02 29.1 °F 26.8 °F 30.4 in NNE 4 mph 8 mph 91 % 0 in
01:12 28.9 °F 26.4 °F 30.3 in NE 1 mph 9 mph 90 % 0 in
01:17 29.1 °F 26.6 °F 30.3 in Calm   9 mph 90 % 0 in
01:22 28.9 °F 26.6 °F 30.3 in NNE 1 mph 11 mph 91 % 0 in
01:27 28.9 °F 26.6 °F 30.3 in NNW 1 mph 11 mph 91 % 0 in
01:32 28.9 °F 26.6 °F 30.3 in North 1 mph 5 mph 91 % 0 in
01:37 28.9 °F 26.6 °F 30.3 in NNW 3 mph 4 mph 91 % 0 in
01:42 28.9 °F 26.6 °F 30.3 in NNE 3 mph 6 mph 91 % 0 in
01:47 28.9 °F 26.6 °F 30.3 in North 3 mph 6 mph 91 % 0 in
01:52 28.9 °F 26.6 °F 30.3 in NNW 3 mph 6 mph 91 % 0 in
01:57 28.9 °F 26.6 °F 30.3 in NNE 2 mph 5 mph 91 % 0 in
02:02 28.9 °F 26.6 °F 30.3 in NE 8 mph 8 mph 91 % 0 in
02:07 28.9 °F 26.6 °F 30.3 in NE 1 mph 8 mph 91 % 0 in
02:12 28.9 °F 26.4 °F 30.3 in NE 6 mph 9 mph 90 % 0 in
02:17 28.9 °F 26.4 °F 30.3 in NNE 2 mph 9 mph 90 % 0 in
02:22 28.9 °F 26.4 °F 30.3 in NE 3 mph 8 mph 90 % 0 in
02:27 28.9 °F 26.4 °F 30.3 in NNE 1 mph 8 mph 90 % 0 in
02:32 28.9 °F 26.4 °F 30.3 in NE 4 mph 6 mph 90 % 0 in
02:37 29.1 °F 26.6 °F 30.3 in NNE 2 mph 8 mph 90 % 0 in
02:42 28.9 °F 26.4 °F 30.3 in NE 5 mph 8 mph 90 % 0 in
02:47 28.9 °F 26.4 °F 30.3 in NE 3 mph 8 mph 90 % 0 in
02:52 28.9 °F 26.1 °F 30.3 in East 2 mph 7 mph 89 % 0 in
02:57 28.9 °F 26.1 °F 30.3 in NE 1 mph 8 mph 89 % 0 in
03:02 29.1 °F 26.2 °F 30.3 in NNE 4 mph 8 mph 89 % 0 in
03:07 29.1 °F 26.2 °F 30.3 in NE 3 mph 8 mph 89 % 0 in
03:12 29.1 °F 26.2 °F 30.3 in NE 5 mph 6 mph 89 % 0 in
03:17 29.1 °F 26.2 °F 30.3 in NNE 3 mph 10 mph 89 % 0 in
03:22 29.1 °F 26.2 °F 30.3 in NE 7 mph 10 mph 89 % 0 in
03:27 29.1 °F 26.2 °F 30.3 in North 4 mph 10 mph 89 % 0 in
03:32 29.1 °F 26.2 °F 30.3 in NE 4 mph 10 mph 89 % 0 in
03:37 29.1 °F 26.2 °F 30.3 in NE 4 mph 10 mph 89 % 0 in
03:42 29.1 °F 26.6 °F 30.3 in NNE 4 mph 10 mph 90 % 0 in
03:47 29.1 °F 26.6 °F 30.3 in NE 6 mph 8 mph 90 % 0 in
03:52 29.1 °F 26.6 °F 30.3 in Calm   10 mph 90 % 0 in
03:57 29.1 °F 26.6 °F 30.3 in North 6 mph 10 mph 90 % 0 in
04:02 28.9 °F 26.4 °F 30.3 in NNW 1 mph 10 mph 90 % 0 in
04:07 28.9 °F 26.6 °F 30.3 in NW 2 mph 9 mph 91 % 0 in
04:12 28.9 °F 26.6 °F 30.3 in North 1 mph 9 mph 91 % 0 in
04:17 28.9 °F 26.6 °F 30.3 in NNE 4 mph 8 mph 91 % 0 in
04:22 28.9 °F 26.6 °F 30.3 in NNE 8 mph 8 mph 91 % 0 in
04:27 28.9 °F 26.4 °F 30.3 in NE 5 mph 9 mph 90 % 0 in
04:32 28.9 °F 26.4 °F 30.3 in NW 4 mph 10 mph 90 % 0 in
04:37 28.9 °F 26.4 °F 30.3 in NNW 2 mph 10 mph 90 % 0 in
04:42 29.1 °F 26.6 °F 30.3 in NE 9 mph 10 mph 90 % 0 in
04:47 29.1 °F 26.1 °F 30.3 in NNE 10 mph 10 mph 88 % 0 in
04:52 29.3 °F 25.3 °F 30.3 in North 8 mph 12 mph 85 % 0 in
04:57 29.3 °F 25.7 °F 30.3 in NNE 5 mph 15 mph 86 % 0 in
05:02 29.3 °F 25.7 °F 30.3 in NNE 6 mph 15 mph 86 % 0 in
05:12 29.3 °F 25.3 °F 30.3 in North 3 mph 15 mph 85 % 0 in
05:17 29.3 °F 25.3 °F 30.3 in NE 10 mph 12 mph 85 % 0 in
05:22 29.1 °F 25.2 °F 30.3 in NE 5 mph 12 mph 85 % 0 in
05:27 29.1 °F 25.5 °F 30.3 in ENE 11 mph 12 mph 86 % 0 in
05:32 29.1 °F 25.5 °F 30.3 in NE 8 mph 12 mph 86 % 0 in
05:37 29.1 °F 25.5 °F 30.3 in NE 5 mph 14 mph 86 % 0 in
05:42 29.1 °F 25.5 °F 30.3 in NE 7 mph 14 mph 86 % 0 in
05:47 28.9 °F 25 °F 30.3 in NE 6 mph 12 mph 85 % 0 in
05:52 28.9 °F 25 °F 30.3 in NNE 7 mph 12 mph 85 % 0 in
05:57 28.9 °F 25 °F 30.3 in NW 1 mph 11 mph 85 % 0 in
06:02 28.9 °F 24.8 °F 30.3 in NE 4 mph 11 mph 84 % 0 in
06:07 28.9 °F 24.8 °F 30.3 in NE 3 mph 12 mph 84 % 0 in
06:12 28.8 °F 24.6 °F 30.3 in NE 4 mph 12 mph 84 % 0 in
06:17 28.8 °F 24.3 °F 30.3 in NE 7 mph 12 mph 83 % 0 in
06:22 28.8 °F 23.9 °F 30.3 in NNE 8 mph 12 mph 82 % 0 in
06:27 28.8 °F 24.3 °F 30.3 in NE 7 mph 13 mph 83 % 0 in
06:32 28.8 °F 24.3 °F 30.3 in NNE 4 mph 13 mph 83 % 0 in
06:42 28.6 °F 24.1 °F 30.3 in ENE 3 mph 13 mph 83 % 0 in
06:47 28.6 °F 24.1 °F 30.3 in East 6 mph 13 mph 83 % 0 in
06:52 28.6 °F 23.7 °F 30.3 in NE 4 mph 13 mph 82 % 0 in
07:02 28.2 °F 23.4 °F 30.3 in ENE 8 mph 10 mph 82 % 0 in
07:07 28.2 °F 23.7 °F 30.3 in NNE 6 mph 10 mph 83 % 0 in
07:12 28.2 °F 23.7 °F 30.3 in NNE 5 mph 10 mph 83 % 0 in
07:17 28.2 °F 23.7 °F 30.3 in NE 5 mph 10 mph 83 % 0 in
07:22 28.2 °F 23.7 °F 30.3 in NNE 5 mph 9 mph 83 % 0 in
07:32 28.2 °F 24.1 °F 30.3 in NNE 7 mph 9 mph 84 % 0 in
07:42 28 °F 24.1 °F 30.3 in NE 7 mph 9 mph 85 % 0 in
07:47 28 °F 24.1 °F 30.3 in NE 4 mph 9 mph 85 % 0 in
07:52 28 °F 24.1 °F 30.3 in NE 5 mph 10 mph 85 % 0 in
07:57 28 °F 24.1 °F 30.3 in NE 8 mph 10 mph 85 % 0 in
08:02 27.9 °F 23.9 °F 30.3 in NE 6 mph 10 mph 85 % 0 in
08:07 27.9 °F 23.9 °F 30.3 in NE 10 mph 10 mph 85 % 0 in
08:12 27.9 °F 23.9 °F 30.3 in NNE 4 mph 11 mph 85 % 0 in
08:17 27.9 °F 24.3 °F 30.3 in NE 8 mph 11 mph 86 % 0 in
08:27 27.7 °F 24.1 °F 30.3 in NNE 3 mph 13 mph 86 % 0 in
08:32 27.5 °F 23.9 °F 30.3 in NE 9 mph 13 mph 86 % 0 in
08:37 27.3 °F 23.9 °F 30.3 in ENE 8 mph 13 mph 87 % 0 in
08:42 27.1 °F 23.5 °F 30.3 in ENE 7 mph 11 mph 86 % 0 in
08:52 27 °F 23.4 °F 30.3 in NE 5 mph 12 mph 86 % 0 in
08:57 26.6 °F 22.6 °F 30.3 in NNE 12 mph 12 mph 85 % 0 in
09:02 26.2 °F 22.3 °F 30.3 in NNE 8 mph 15 mph 85 % 0 in
09:07 25.9 °F 21.9 °F 30.3 in NE 5 mph 15 mph 85 % 0 in
09:12 25.9 °F 21.9 °F 30.3 in NNE 7 mph 15 mph 85 % 0 in
09:17 25.5 °F 21.4 °F 30.3 in NE 11 mph 15 mph 84 % 0 in
09:22 25.3 °F 21.2 °F 30.4 in ENE 11 mph 14 mph 84 % 0 in
09:27 25.2 °F 21.4 °F 30.4 in NE 14 mph 14 mph 85 % 0 in
09:32 25.2 °F 21 °F 30.4 in ENE 11 mph 15 mph 84 % 0 in
09:37 25.2 °F 21 °F 30.4 in NE 4 mph 15 mph 84 % 0 in
09:42 25.2 °F 21 °F 30.4 in NE 4 mph 15 mph 84 % 0 in
09:52 25.2 °F 21 °F 30.4 in NW 3 mph 12 mph 84 % 0 in
09:57 25.2 °F 21 °F 30.4 in NE 8 mph 12 mph 84 % 0 in
10:02 25.2 °F 21 °F 30.4 in NE 8 mph 15 mph 84 % 0 in
10:07 25.2 °F 21 °F 30.4 in NE 5 mph 15 mph 84 % 0 in
10:12 25.2 °F 21 °F 30.4 in NE 14 mph 15 mph 84 % 0 in
10:17 25.2 °F 21 °F 30.4 in NNE 12 mph 15 mph 84 % 0 in
10:22 25.2 °F 21 °F 30.4 in NE 6 mph 15 mph 84 % 0 in
10:27 25 °F 20.5 °F 30.4 in NE 8 mph 15 mph 83 % 0 in
10:32 25 °F 20.8 °F 30.4 in NNE 4 mph 15 mph 84 % 0 in
10:37 25.2 °F 21 °F 30.4 in NE 4 mph 15 mph 84 % 0 in
10:42 25.2 °F 21 °F 30.4 in NE 9 mph 15 mph 84 % 0 in
10:47 25.2 °F 21 °F 30.4 in NE 7 mph 15 mph 84 % 0 in
10:52 25 °F 20.8 °F 30.4 in ENE 6 mph 11 mph 84 % 0 in
10:57 25 °F 20.8 °F 30.4 in ENE 6 mph 11 mph 84 % 0 in
11:02 25.2 °F 20.7 °F 30.4 in NE 7 mph 13 mph 83 % 0 in
11:07 25.2 °F 21 °F 30.4 in NE 6 mph 13 mph 84 % 0 in
11:12 25.3 °F 21.2 °F 30.4 in ENE 3 mph 13 mph 84 % 0 in
11:17 25.3 °F 20.8 °F 30.4 in ENE 6 mph 13 mph 83 % 0 in
11:22 25.3 °F 20.8 °F 30.4 in NNE 3 mph 11 mph 83 % 0 in
11:32 25.2 °F 20.7 °F 30.4 in NE 2 mph 11 mph 83 % 0 in
11:37 25.3 °F 20.8 °F 30.4 in NNE 8 mph 11 mph 83 % 0 in
11:42 25.3 °F 20.8 °F 30.4 in NE 7 mph 13 mph 83 % 0 in
11:47 25.3 °F 20.8 °F 30.4 in ENE 3 mph 13 mph 83 % 0 in
11:52 25.3 °F 20.7 °F 30.4 in East 5 mph 11 mph 82 % 0 in
11:57 25.5 °F 20.8 °F 30.4 in ENE 5 mph 11 mph 82 % 0 in
12:02 25.5 °F 20.8 °F 30.4 in ENE 4 mph 11 mph 82 % 0 in
12:07 25.5 °F 20.8 °F 30.4 in ENE 5 mph 10 mph 82 % 0 in
12:12 25.7 °F 21 °F 30.4 in NNE 2 mph 10 mph 82 % 0 in
12:17 25.5 °F 20.5 °F 30.3 in ENE 4 mph 9 mph 81 % 0 in
12:22 25.7 °F 20.7 °F 30.3 in NNE 9 mph 13 mph 81 % 0 in
12:27 25.5 °F 20.5 °F 30.3 in NE 4 mph 13 mph 81 % 0 in
12:32 25.9 °F 20.8 °F 30.3 in NE 12 mph 13 mph 81 % 0 in
12:37 25.9 °F 20.8 °F 30.3 in East 3 mph 13 mph 81 % 0 in
12:42 25.9 °F 20.8 °F 30.3 in ENE 7 mph 13 mph 81 % 0 in
12:47 25.9 °F 20.8 °F 30.3 in NE 3 mph 13 mph 81 % 0 in
12:57 25.9 °F 20.5 °F 30.3 in ENE 3 mph 11 mph 80 % 0 in
13:02 25.9 °F 20.5 °F 30.3 in ENE 2 mph 10 mph 80 % 0 in
13:07 25.9 °F 20.5 °F 30.3 in ENE 6 mph 10 mph 80 % 0 in
13:12 25.9 °F 20.8 °F 30.3 in East 2 mph 10 mph 81 % 0 in
13:17 25.9 °F 20.5 °F 30.3 in NE 2 mph 11 mph 80 % 0 in
13:22 25.9 °F 20.5 °F 30.3 in ENE 5 mph 11 mph 80 % 0 in
13:32 26.1 °F 20.7 °F 30.3 in NE 6 mph 10 mph 80 % 0 in
13:37 26.1 °F 20.7 °F 30.3 in ENE 6 mph 10 mph 80 % 0 in
13:42 26.1 °F 20.7 °F 30.3 in ENE 3 mph 8 mph 80 % 0 in
13:52 26.2 °F 20.8 °F 30.3 in East 3 mph 8 mph 80 % 0 in
14:02 26.2 °F 20.8 °F 30.3 in ENE 1 mph 10 mph 80 % 0 in
14:12 26.2 °F 20.7 °F 30.3 in ENE 6 mph 10 mph 79 % 0 in
14:17 26.2 °F 20.7 °F 30.3 in ENE 1 mph 8 mph 79 % 0 in
14:22 26.2 °F 20.7 °F 30.3 in East 3 mph 9 mph 79 % 0 in
14:27 26.2 °F 20.7 °F 30.3 in ENE 6 mph 9 mph 79 % 0 in
14:32 26.2 °F 20.7 °F 30.3 in East 4 mph 9 mph 79 % 0 in
14:37 26.4 °F 20.8 °F 30.3 in East 2 mph 8 mph 79 % 0 in
14:42 26.4 °F 20.8 °F 30.3 in ENE 2 mph 9 mph 79 % 0 in
14:52 26.4 °F 20.8 °F 30.3 in ENE 2 mph 9 mph 79 % 0 in
14:57 26.4 °F 20.8 °F 30.3 in ENE 3 mph 9 mph 79 % 0 in
15:02 26.4 °F 20.8 °F 30.3 in NNE 6 mph 7 mph 79 % 0 in
15:12 26.2 °F 20.3 °F 30.3 in ENE 6 mph 8 mph 78 % 0 in
15:17 26.4 °F 21 °F 30.3 in ENE 2 mph 9 mph 80 % 0 in
15:22 26.4 °F 20.8 °F 30.3 in East 3 mph 9 mph 79 % 0 in
15:27 26.4 °F 20.8 °F 30.3 in NE 5 mph 9 mph 79 % 0 in
15:32 26.4 °F 20.8 °F 30.3 in NE 1 mph 10 mph 79 % 0 in
15:37 26.4 °F 21 °F 30.3 in ENE 3 mph 10 mph 80 % 0 in
15:42 26.4 °F 21 °F 30.3 in NE 5 mph 7 mph 80 % 0 in
15:47 26.4 °F 21 °F 30.3 in NNE 3 mph 7 mph 80 % 0 in
15:52 26.4 °F 21.4 °F 30.3 in ENE 4 mph 7 mph 81 % 0 in
15:57 26.4 °F 21 °F 30.3 in NE 2 mph 7 mph 80 % 0 in
16:02 26.4 °F 20.8 °F 30.3 in ENE 7 mph 8 mph 79 % 0 in
16:07 26.4 °F 21.4 °F 30.3 in NE 3 mph 8 mph 81 % 0 in
16:12 26.2 °F 21.2 °F 30.3 in NE 7 mph 8 mph 81 % 0 in
16:17 26.2 °F 21.2 °F 30.3 in ENE 2 mph 8 mph 81 % 0 in
16:22 26.2 °F 21.2 °F 30.3 in NE 2 mph 8 mph 81 % 0 in
16:27 26.2 °F 21.6 °F 30.3 in ENE 4 mph 8 mph 82 % 0 in
16:32 26.2 °F 20.8 °F 30.3 in East 2 mph 8 mph 80 % 0 in
16:37 26.4 °F 21.4 °F 30.3 in East 1 mph 7 mph 81 % 0 in
16:42 26.4 °F 21.7 °F 30.3 in NE 2 mph 7 mph 82 % 0 in
16:47 26.2 °F 21.2 °F 30.3 in East 1 mph 4 mph 81 % 0 in
16:52 26.4 °F 21 °F 30.3 in ENE 4 mph 5 mph 80 % 0 in
16:57 26.2 °F 20.8 °F 30.3 in NE 2 mph 5 mph 80 % 0 in
17:02 26.2 °F 20.8 °F 30.3 in East 2 mph 6 mph 80 % 0 in
17:07 26.2 °F 20.7 °F 30.3 in ESE 3 mph 6 mph 79 % 0 in
17:12 26.2 °F 20.7 °F 30.3 in East 2 mph 6 mph 79 % 0 in
17:17 26.2 °F 20.3 °F 30.3 in NE 1 mph 6 mph 78 % 0 in
17:22 26.2 °F 20.7 °F 30.3 in ENE 2 mph 6 mph 79 % 0 in
17:27 26.2 °F 20.8 °F 30.3 in ENE 1 mph 6 mph 80 % 0 in
17:32 26.2 °F 20.8 °F 30.3 in East 1 mph 6 mph 80 % 0 in
17:37 26.2 °F 20.8 °F 30.3 in ENE 3 mph 5 mph 80 % 0 in
17:42 26.2 °F 20.8 °F 30.3 in ENE 3 mph 4 mph 80 % 0 in
17:47 26.2 °F 20.8 °F 30.3 in ESE 1 mph 6 mph 80 % 0 in
17:52 26.2 °F 20.8 °F 30.3 in East 2 mph 6 mph 80 % 0 in
17:57 26.1 °F 20.7 °F 30.3 in ENE 2 mph 6 mph 80 % 0 in
18:02 26.1 °F 20.5 °F 30.3 in East 4 mph 5 mph 79 % 0 in
18:12 26.1 °F 20.7 °F 30.3 in East 1 mph 6 mph 80 % 0 in
18:17 26.1 °F 20.7 °F 30.3 in East 1 mph 6 mph 80 % 0 in
18:22 26.1 °F 20.7 °F 30.3 in ENE 3 mph 5 mph 80 % 0 in
18:27 25.9 °F 20.3 °F 30.3 in East 2 mph 5 mph 79 % 0 in
18:32 25.9 °F 20.3 °F 30.3 in East 2 mph 4 mph 79 % 0 in
18:37 25.9 °F 20.3 °F 30.3 in ENE 5 mph 5 mph 79 % 0 in
18:42 25.9 °F 20.3 °F 30.3 in Calm   8 mph 79 % 0 in
18:47 25.9 °F 20.3 °F 30.3 in ENE 1 mph 8 mph 79 % 0 in
18:57 25.9 °F 20.3 °F 30.3 in East 3 mph 10 mph 79 % 0 in
19:02 25.9 °F 20.3 °F 30.3 in East 2 mph 7 mph 79 % 0 in
19:12 25.7 °F 20.1 °F 30.3 in ENE 2 mph 6 mph 79 % 0 in
19:17 25.7 °F 20.1 °F 30.3 in ENE 3 mph 6 mph 79 % 0 in
19:22 25.7 °F 20.1 °F 30.3 in NE 2 mph 5 mph 79 % 0 in
19:27 25.7 °F 20.1 °F 30.3 in East 5 mph 5 mph 79 % 0 in
19:32 25.7 °F 20.1 °F 30.3 in ENE 2 mph 5 mph 79 % 0 in
19:37 25.7 °F 20.1 °F 30.3 in ENE 2 mph 6 mph 79 % 0 in
19:42 25.7 °F 20.5 °F 30.3 in East 3 mph 6 mph 80 % 0 in
19:47 25.5 °F 19.9 °F 30.3 in Calm   5 mph 79 % 0 in
19:52 25.7 °F 20.5 °F 30.3 in East 1 mph 5 mph 80 % 0 in
19:57 25.7 °F 20.5 °F 30.3 in East 3 mph 6 mph 80 % 0 in
20:02 25.7 °F 20.5 °F 30.3 in ESE 1 mph 6 mph 80 % 0 in
20:12 25.5 °F 20.3 °F 30.3 in Calm   4 mph 80 % 0 in
20:17 25.5 °F 20.3 °F 30.3 in ESE 1 mph 3 mph 80 % 0 in
20:22 25.5 °F 20.3 °F 30.3 in East 2 mph 4 mph 80 % 0 in
20:27 25.5 °F 20.3 °F 30.3 in East 2 mph 4 mph 80 % 0 in
20:32 25.5 °F 20.3 °F 30.3 in East 1 mph 4 mph 80 % 0 in
20:37 25.7 °F 20.5 °F 30.3 in East 3 mph 4 mph 80 % 0 in
20:42 25.7 °F 20.5 °F 30.3 in East 1 mph 6 mph 80 % 0 in
20:47 25.7 °F 20.5 °F 30.3 in East 1 mph 6 mph 80 % 0 in
20:52 25.5 °F 20.3 °F 30.3 in East 2 mph 6 mph 80 % 0 in
20:57 25.5 °F 20.3 °F 30.3 in East 4 mph 5 mph 80 % 0 in
21:02 25.7 °F 20.5 °F 30.3 in East 1 mph 5 mph 80 % 0 in
21:17 25.5 °F 20.5 °F 30.3 in ENE 1 mph 4 mph 81 % 0 in
21:22 25.5 °F 20.5 °F 30.3 in East 2 mph 4 mph 81 % 0 in
21:27 25.5 °F 20.5 °F 30.3 in East 4 mph 4 mph 81 % 0 in
21:32 25.5 °F 20.5 °F 30.3 in ESE 1 mph 5 mph 81 % 0 in
21:37 25.5 °F 20.5 °F 30.3 in ESE 4 mph 5 mph 81 % 0 in
21:42 25.5 °F 20.5 °F 30.3 in East 2 mph 5 mph 81 % 0 in
21:47 25.3 °F 20.7 °F 30.3 in East 4 mph 4 mph 82 % 0 in
21:52 25.3 °F 20.7 °F 30.3 in Calm   4 mph 82 % 0 in
21:57 25.3 °F 20.7 °F 30.3 in ESE 1 mph 4 mph 82 % 0 in
22:02 25.3 °F 20.7 °F 30.3 in Calm   4 mph 82 % 0 in
22:07 25.3 °F 20.8 °F 30.3 in Calm   4 mph 83 % 0 in
22:12 25.2 °F 20.7 °F 30.3 in SE 1 mph 4 mph 83 % 0 in
22:17 25 °F 20.5 °F 30.3 in ESE 1 mph 2 mph 83 % 0 in
22:22 25 °F 20.5 °F 30.3 in SE 1 mph 2 mph 83 % 0 in
22:27 24.8 °F 20.3 °F 30.3 in Calm   4 mph 83 % 0 in
22:32 24.4 °F 20.3 °F 30.3 in Calm   4 mph 84 % 0 in
22:37 24.3 °F 20.1 °F 30.3 in Calm   4 mph 84 % 0 in
22:42 24.1 °F 19.9 °F 30.3 in Calm   1 mph 84 % 0 in
22:47 23.9 °F 19.8 °F 30.3 in Calm   2 mph 84 % 0 in
22:52 23.7 °F 19.9 °F 30.3 in Calm   2 mph 85 % 0 in
22:57 23.5 °F 19.8 °F 30.3 in Calm   2 mph 85 % 0 in
23:02 23.4 °F 19.6 °F 30.3 in Calm   2 mph 85 % 0 in
23:07 23.2 °F 19.4 °F 30.3 in Calm   1 mph 85 % 0 in
23:12 23.2 °F 19.4 °F 30.3 in Calm   1 mph 85 % 0 in
23:17 23.2 °F 19.4 °F 30.3 in Calm   1 mph 85 % 0 in
23:22 23.2 °F 19.6 °F 30.3 in Calm   1 mph 86 % 0 in
23:27 23.2 °F 19.6 °F 30.3 in Calm   1 mph 86 % 0 in
23:32 23.2 °F 19.6 °F 30.3 in Calm   1 mph 86 % 0 in
23:37 22.8 °F 19.2 °F 30.3 in Calm   1 mph 86 % 0 in
23:42 23 °F 19.4 °F 30.3 in Calm   1 mph 86 % 0 in
23:47 23.2 °F 19.6 °F 30.3 in East 1 mph 1 mph 86 % 0 in
23:52 23.2 °F 19.4 °F 30.3 in East 1 mph 2 mph 85 % 0 in
23:57 23.2 °F 19.4 °F 30.3 in Calm   3 mph 85 % 0 in
Meteo18
Compliments of Weather Underground - 4 mb

Script developed by  Jim McMurry - jmcmurry@mwt.net Adapted for the template by  Wim van der Kuil - Leuven-Template.eu

You find our weather info also at:

European Weather Network

Weather Underground

Equipment we use:

Weather-station
Davis Vue

Weather-program
Meteohub

Weather-server
Raspberry PI 2 B+

Provider
1 and 1

Davis Vue

Meteohub

Raspberry PI 2 B+

1 and 1